TimeCST,TemperatureF,Dew PointF,Humidity,Sea Level PressureIn,VisibilityMPH,Wind Direction,Wind SpeedMPH,Gust SpeedMPH,PrecipitationIn,Events,Conditions,WindDirDegrees,DateUTC
12:53 AM,43.0,30.0,60,30.27,10.0,SSE,9.2,-,N/A,,Clear,150,2012-11-18 06:53:00
1:53 AM,43.0,30.0,60,30.27,10.0,South,11.5,-,N/A,,Clear,170,2012-11-18 07:53:00
2:53 AM,39.0,28.0,65,30.27,10.0,SSE,9.2,-,N/A,,Clear,160,2012-11-18 08:53:00
3:53 AM,41.0,28.9,62,30.25,10.0,South,11.5,-,N/A,,Clear,170,2012-11-18 09:53:00
4:53 AM,42.1,28.9,60,30.25,10.0,South,12.7,-,N/A,,Clear,170,2012-11-18 10:53:00
5:53 AM,43.0,28.9,58,30.25,10.0,South,11.5,-,N/A,,Clear,170,2012-11-18 11:53:00
6:53 AM,42.1,28.9,60,30.25,10.0,South,10.4,-,N/A,,Partly Cloudy,170,2012-11-18 12:53:00
7:53 AM,43.0,28.9,58,30.26,10.0,South,12.7,-,N/A,,Partly Cloudy,170,2012-11-18 13:53:00
8:53 AM,48.0,30.0,50,30.26,10.0,South,13.8,-,N/A,,Partly Cloudy,180,2012-11-18 14:53:00
9:53 AM,54.0,30.9,41,30.25,10.0,South,13.8,20.7,N/A,,Scattered Clouds,180,2012-11-18 15:53:00
10:53 AM,57.9,30.9,36,30.23,10.0,SSW,21.9,26.5,N/A,,Scattered Clouds,200,2012-11-18 16:53:00
11:53 AM,60.1,33.1,36,30.21,10.0,SSW,15.0,-,N/A,,Mostly Cloudy,200,2012-11-18 17:53:00
12:53 PM,60.1,33.1,36,30.17,10.0,South,18.4,-,N/A,,Mostly Cloudy,180,2012-11-18 18:53:00
1:53 PM,61.0,34.0,36,30.16,10.0,South,16.1,-,N/A,,Mostly Cloudy,170,2012-11-18 19:53:00
2:53 PM,61.0,34.0,36,30.14,10.0,SSE,12.7,-,N/A,,Mostly Cloudy,150,2012-11-18 20:53:00
3:53 PM,59.0,34.0,39,30.14,10.0,SSE,10.4,-,N/A,,Mostly Cloudy,150,2012-11-18 21:53:00
4:53 PM,57.9,33.1,39,30.16,10.0,South,11.5,-,N/A,,Overcast,170,2012-11-18 22:53:00
5:53 PM,55.0,34.0,45,30.15,10.0,SSE,10.4,-,N/A,,Overcast,150,2012-11-18 23:53:00
6:53 PM,55.9,34.0,44,30.16,10.0,SSE,12.7,-,N/A,,Overcast,150,2012-11-19 00:53:00
7:53 PM,57.0,33.1,40,30.15,10.0,SSE,12.7,-,N/A,,Overcast,150,2012-11-19 01:53:00
8:53 PM,57.9,30.9,36,30.14,10.0,SSE,15.0,-,N/A,,Overcast,150,2012-11-19 02:53:00
9:53 PM,57.0,30.9,37,30.15,10.0,South,10.4,-,N/A,,Overcast,180,2012-11-19 03:53:00
10:53 PM,57.0,30.9,37,30.14,10.0,SSE,12.7,-,N/A,,Overcast,160,2012-11-19 04:53:00
11:53 PM,55.9,30.9,39,30.14,10.0,South,15.0,-,N/A,,Overcast,170,2012-11-19 05:53:00